| time (UTC) | temp F | wind direction | speed knots | gust knots | rain 1hr in | rain 24hr in | rain mn in | humidity % | barometer mb |
| 20260510202104 | 53 | 68 | 1.7 | 2.6 | 0.00 | 0.00 | 0.00 | 76 | 1010.2 |
| 20260510201605 | 53 | 287 | 1.7 | 5.2 | 0.00 | 0.00 | 0.00 | 76 | 1010.2 |
| 20260510201106 | 53 | 218 | 1.7 | 2.6 | 0.00 | 0.00 | 0.00 | 76 | 1010.2 |
| 20260510200104 | 54 | 81 | 1.7 | 5.2 | 0.00 | 0.00 | 0.00 | 76 | 1010.3 |
| 20260510195604 | 54 | 274 | 1.7 | 6.1 | 0.00 | 0.00 | 0.00 | 76 | 1010.4 |
| 20260510195106 | 54 | 267 | 1.7 | 6.1 | 0.00 | 0.00 | 0.00 | 76 | 1010.4 |
| 20260510194604 | 54 | 7 | 3.5 | 5.2 | 0.00 | 0.00 | 0.00 | 76 | 1010.5 |
| 20260510194104 | 54 | 267 | 0.9 | 7.0 | 0.00 | 0.00 | 0.00 | 75 | 1010.5 |
| 20260510193604 | 54 | 333 | 1.7 | 7.0 | 0.00 | 0.00 | 0.00 | 75 | 1010.4 |
| 20260510193104 | 54 | 227 | 0.0 | 6.1 | 0.00 | 0.00 | 0.00 | 75 | 1010.3 |
| 20260510192604 | 55 | 261 | 1.7 | 6.1 | 0.00 | 0.00 | 0.00 | 75 | 1010.5 |
| 20260510192104 | 55 | 308 | 2.6 | 6.1 | 0.00 | 0.00 | 0.00 | 75 | 1010.5 |
| 20260510191604 | 55 | 299 | 2.6 | 5.2 | 0.00 | 0.00 | 0.00 | 75 | 1010.2 |
| 20260510191104 | 55 | 322 | 2.6 | 8.7 | 0.00 | 0.00 | 0.00 | 74 | 1010.5 |
| 20260510190606 | 55 | 271 | 1.7 | 4.3 | 0.00 | 0.00 | 0.00 | 74 | 1010.5 |
| 20260510190104 | 55 | 280 | 1.7 | 6.1 | 0.00 | 0.00 | 0.00 | 74 | 1010.5 |
| 20260510185605 | 56 | 278 | 2.6 | 5.2 | 0.00 | 0.00 | 0.00 | 73 | 1010.5 |
| 20260510184604 | 56 | 286 | 1.7 | 4.3 | 0.00 | 0.00 | 0.00 | 73 | 1010.4 |
| 20260510183605 | 56 | 274 | 1.7 | 4.3 | 0.00 | 0.00 | 0.00 | 73 | 1010.2 |
| 20260510183104 | 57 | 215 | 0.9 | 4.3 | 0.00 | 0.00 | 0.00 | 73 | 1010.5 |
| 20260510182604 | 57 | 302 | 2.6 | 5.2 | 0.00 | 0.00 | 0.00 | 72 | 1010.5 |
| 20260510181604 | 57 | 301 | 1.7 | 7.8 | 0.00 | 0.00 | 0.00 | 72 | 1010.5 |
| 20260510181104 | 57 | 288 | 1.7 | 7.8 | 0.00 | 0.00 | 0.00 | 71 | 1010.5 |
| 20260510180104 | 58 | 30 | 0.0 | 5.2 | 0.00 | 0.00 | 0.00 | 71 | 1010.3 |
| 20260510175604 | 58 | 234 | 1.7 | 4.3 | 0.00 | 0.00 | 0.00 | 70 | 1010.4 |
| 20260510175104 | 58 | 250 | 1.7 | 4.3 | 0.00 | 0.00 | 0.00 | 70 | 1010.5 |
| 20260510174604 | 59 | 296 | 1.7 | 5.2 | 0.00 | 0.00 | 0.00 | 69 | 1010.5 |
| 20260510174104 | 59 | 274 | 1.7 | 7.8 | 0.00 | 0.00 | 0.00 | 69 | 1010.5 |
| 20260510173604 | 59 | 299 | 1.7 | 7.8 | 0.00 | 0.00 | 0.00 | 68 | 1010.8 |
| 20260510173105 | 60 | 278 | 1.7 | 4.3 | 0.00 | 0.00 | 0.00 | 68 | 1010.6 |
| 20260510172104 | 60 | 292 | 2.6 | 5.2 | 0.00 | 0.00 | 0.00 | 67 | 1010.8 |
| 20260510170605 | 61 | 286 | 1.7 | 4.3 | 0.00 | 0.00 | 0.00 | 65 | 1010.7 |
| 20260510170104 | 61 | 290 | 2.6 | 6.1 | 0.00 | 0.00 | 0.00 | 65 | 1010.7 |
| 20260510165604 | 62 | 303 | 2.6 | 6.1 | 0.00 | 0.00 | 0.00 | 64 | 1010.5 |
| 20260510165106 | 62 | 274 | 2.6 | 6.1 | 0.00 | 0.00 | 0.00 | 64 | 1010.5 |
| 20260510164604 | 62 | 289 | 2.6 | 6.1 | 0.00 | 0.00 | 0.00 | 64 | 1010.5 |
| 20260510164104 | 62 | 288 | 2.6 | 7.0 | 0.00 | 0.00 | 0.00 | 64 | 1010.6 |
| 20260510163104 | 62 | 316 | 2.6 | 7.8 | 0.00 | 0.00 | 0.00 | 64 | 1010.7 |
| 20260510162604 | 62 | 305 | 1.7 | 7.8 | 0.00 | 0.00 | 0.00 | 64 | 1010.8 |
| 20260510161604 | 62 | 291 | 1.7 | 5.2 | 0.00 | 0.00 | 0.00 | 64 | 1010.8 |
| 20260510161104 | 62 | 280 | 1.7 | 7.0 | 0.00 | 0.00 | 0.00 | 63 | 1011.2 |
| 20260510160604 | 63 | 310 | 2.6 | 5.2 | 0.00 | 0.00 | 0.00 | 63 | 1011.2 |
| 20260510160104 | 63 | 287 | 1.7 | 7.8 | 0.00 | 0.00 | 0.00 | 62 | 1011.2 |
| 20260510155604 | 64 | 325 | 1.7 | 7.8 | 0.00 | 0.00 | 0.00 | 62 | 1011.2 |
| 20260510155104 | 64 | 275 | 1.7 | 5.2 | 0.00 | 0.00 | 0.00 | 61 | 1011.2 |
| 20260510154604 | 63 | 231 | 1.7 | 5.2 | 0.00 | 0.00 | 0.00 | 62 | 1011.4 |
| 20260510153604 | 64 | 303 | 2.6 | 5.2 | 0.00 | 0.00 | 0.00 | 61 | 1011.2 |
| 20260510153104 | 64 | 291 | 1.7 | 7.8 | 0.00 | 0.00 | 0.00 | 59 | 1011.2 |
| 20260510152604 | 65 | 341 | 2.6 | 6.1 | 0.00 | 0.00 | 0.00 | 59 | 1011.2 |
| 20260510151604 | 65 | 287 | 2.6 | 5.2 | 0.00 | 0.00 | 0.00 | 58 | 1011.2 |
| 20260510145605 | 65 | 284 | 1.7 | 6.1 | 0.00 | 0.00 | 0.00 | 57 | 1011.9 |
| 20260510145104 | 65 | 277 | 2.6 | 5.2 | 0.00 | 0.00 | 0.00 | 56 | 1011.9 |
| 20260510144604 | 65 | 297 | 1.7 | 7.8 | 0.00 | 0.00 | 0.00 | 57 | 1011.9 |
| 20260510144105 | 65 | 292 | 2.6 | 5.2 | 0.00 | 0.00 | 0.00 | 57 | 1011.7 |
| 20260510143604 | 66 | 291 | 1.7 | 4.3 | 0.00 | 0.00 | 0.00 | 57 | 1011.9 |
| 20260510142605 | 66 | 295 | 1.7 | 4.3 | 0.00 | 0.00 | 0.00 | 56 | 1011.9 |
| 20260510142104 | 66 | 239 | 1.7 | 4.3 | 0.00 | 0.00 | 0.00 | 56 | 1011.9 |
| 20260510141604 | 66 | 155 | 2.6 | 7.8 | 0.00 | 0.00 | 0.00 | 57 | 1011.9 |
| 20260510141122 | 66 | 302 | 1.7 | 6.1 | 0.00 | 0.00 | 0.00 | 55 | 1012.2 |
| 20260510135604 | 66 | 321 | 3.5 | 7.8 | 0.00 | 0.00 | 0.00 | 54 | 1012.2 |
| 20260510135108 | 67 | 309 | 2.6 | 7.8 | 0.00 | 0.00 | 0.00 | 55 | 1012.2 |
| 20260510134604 | 67 | 296 | 1.7 | 7.0 | 0.00 | 0.00 | 0.00 | 54 | 1012.3 |
| 20260510134104 | 67 | 299 | 1.7 | 7.8 | 0.00 | 0.00 | 0.00 | 53 | 1012.5 |
| 20260510133605 | 67 | 305 | 0.9 | 5.2 | 0.00 | 0.00 | 0.00 | 53 | 1012.2 |
| 20260510132604 | 67 | 299 | 3.5 | 7.8 | 0.00 | 0.00 | 0.00 | 52 | 1012.5 |
| 20260510132110 | 67 | 242 | 2.6 | 7.8 | 0.00 | 0.00 | 0.00 | 52 | 1012.4 |
| 20260510131615 | 66 | 305 | 1.7 | 8.7 | 0.00 | 0.00 | 0.00 | 53 | 1012.5 |
| 20260510130609 | 66 | 281 | 2.6 | 7.8 | 0.00 | 0.00 | 0.00 | 52 | 1012.9 |
| 20260510125604 | 67 | 260 | 1.7 | 6.1 | 0.00 | 0.00 | 0.00 | 51 | 1012.6 |
| 20260510125107 | 66 | 316 | 3.5 | 7.0 | 0.00 | 0.00 | 0.00 | 50 | 1012.9 |
| 20260510124106 | 67 | 256 | 1.7 | 7.8 | 0.00 | 0.00 | 0.00 | 48 | 1013.5 |
| 20260510123604 | 67 | 309 | 4.3 | 7.8 | 0.00 | 0.00 | 0.00 | 48 | 1012.9 |
| 20260510123104 | 67 | 289 | 1.7 | 11.3 | 0.00 | 0.00 | 0.00 | 50 | 1013.2 |
| 20260510122604 | 67 | 298 | 3.5 | 5.2 | 0.00 | 0.00 | 0.00 | 48 | 1012.9 |
| 20260510122104 | 67 | 224 | 1.7 | 10.4 | 0.00 | 0.00 | 0.00 | 48 | 1013.2 |
| 20260510121604 | 66 | 293 | 4.3 | 10.4 | 0.00 | 0.00 | 0.00 | 50 | 1013.4 |
| 20260510121104 | 68 | 305 | 3.5 | 5.2 | 0.00 | 0.00 | 0.00 | 48 | 1013.5 |
| 20260510120605 | 68 | 290 | 0.9 | 4.3 | 0.00 | 0.00 | 0.00 | 48 | 1013.5 |
| 20260510120105 | 68 | 23 | 0.9 | 2.6 | 0.00 | 0.00 | 0.00 | 48 | 1013.5 |
| 20260510115604 | 67 | 272 | 0.9 | 4.3 | 0.00 | 0.00 | 0.00 | 49 | 1013.5 |
| 20260510115104 | 66 | 259 | 1.7 | 11.3 | 0.00 | 0.00 | 0.00 | 50 | 1013.4 |
| 20260510114604 | 67 | 279 | 1.7 | 5.2 | 0.00 | 0.00 | 0.00 | 51 | 1013.5 |
| 20260510113604 | 67 | 278 | 1.7 | 5.2 | 0.00 | 0.00 | 0.00 | 50 | 1013.5 |
| 20260510113104 | 66 | 285 | 2.6 | 5.2 | 0.00 | 0.00 | 0.00 | 50 | 1013.5 |
| 20260510112104 | 66 | 283 | 2.6 | 7.8 | 0.00 | 0.00 | 0.00 | 52 | 1013.8 |
| 20260510111604 | 66 | 279 | 2.6 | 7.8 | 0.00 | 0.00 | 0.00 | 52 | 1013.9 |
| 20260510110604 | 66 | 288 | 2.6 | 5.2 | 0.00 | 0.00 | 0.00 | 52 | 1014.0 |
| 20260510110104 | 66 | 1 | 1.7 | 7.0 | 0.00 | 0.00 | 0.00 | 52 | 1014.1 |
| 20260510105604 | 66 | 287 | 1.7 | 4.3 | 0.00 | 0.00 | 0.00 | 52 | 1014.2 |
| 20260510105104 | 64 | 292 | 2.6 | 7.0 | 0.00 | 0.00 | 0.00 | 57 | 1013.9 |
| 20260510103105 | 65 | 280 | 2.6 | 7.8 | 0.00 | 0.00 | 0.00 | 55 | 1014.2 |
| 20260510102606 | 65 | 267 | 1.7 | 6.1 | 0.00 | 0.00 | 0.00 | 54 | 1014.2 |
| 20260510101604 | 65 | 273 | 4.3 | 6.1 | 0.00 | 0.00 | 0.00 | 55 | 1014.2 |
| 20260510100104 | 65 | 299 | 1.7 | 6.1 | 0.00 | 0.00 | 0.00 | 54 | 1014.5 |
| 20260510095609 | 65 | 308 | 2.6 | 5.2 | 0.00 | 0.00 | 0.00 | 52 | 1014.6 |
| 20260510095104 | 66 | 295 | 1.7 | 4.3 | 0.00 | 0.00 | 0.00 | 52 | 1014.4 |
| 20260510094604 | 66 | 225 | 0.9 | 2.6 | 0.00 | 0.00 | 0.00 | 51 | 1014.8 |
| 20260510094105 | 64 | 273 | 1.7 | 5.2 | 0.00 | 0.00 | 0.00 | 53 | 1014.6 |
| 20260510093604 | 64 | 297 | 3.5 | 7.0 | 0.00 | 0.00 | 0.00 | 56 | 1014.6 |
| 20260510093105 | 63 | 297 | 3.5 | 6.1 | 0.00 | 0.00 | 0.00 | 56 | 1014.8 |
| 20260510092604 | 64 | 300 | 2.6 | 4.3 | 0.00 | 0.00 | 0.00 | 56 | 1014.9 |
| 20260510092104 | 63 | 295 | 1.7 | 6.1 | 0.00 | 0.00 | 0.00 | 58 | 1014.9 |
| 20260510091604 | 62 | 278 | 2.6 | 6.1 | 0.00 | 0.00 | 0.00 | 58 | 1014.7 |
| 20260510090605 | 62 | 278 | 1.7 | 5.2 | 0.00 | 0.00 | 0.00 | 59 | 1014.8 |
| 20260510090104 | 62 | 315 | 1.7 | 6.1 | 0.00 | 0.00 | 0.00 | 59 | 1014.6 |
| 20260510085604 | 62 | 321 | 3.5 | 6.1 | 0.00 | 0.00 | 0.00 | 59 | 1014.6 |
| 20260510085104 | 64 | 293 | 1.7 | 6.1 | 0.00 | 0.00 | 0.00 | 59 | 1014.9 |
| 20260510084604 | 63 | 282 | 0.9 | 5.2 | 0.00 | 0.00 | 0.00 | 59 | 1014.6 |
| 20260510083604 | 61 | 262 | 1.7 | 5.2 | 0.00 | 0.00 | 0.00 | 62 | 1014.9 |
| 20260510083104 | 61 | 321 | 2.6 | 5.2 | 0.00 | 0.00 | 0.00 | 63 | 1014.9 |
| 20260510082606 | 61 | 284 | 1.7 | 6.1 | 0.00 | 0.00 | 0.00 | 62 | 1015.2 |
| 20260510081604 | 60 | 263 | 1.7 | 5.2 | 0.00 | 0.00 | 0.00 | 62 | 1015.2 |
| 20260510081106 | 60 | 246 | 1.7 | 6.1 | 0.00 | 0.00 | 0.00 | 64 | 1015.2 |
| 20260510080105 | 60 | 288 | 1.7 | 5.2 | 0.00 | 0.00 | 0.00 | 63 | 1015.0 |
| 20260510075104 | 60 | 285 | 2.6 | 4.3 | 0.00 | 0.00 | 0.00 | 63 | 1015.2 |
| 20260510074605 | 60 | 297 | 1.7 | 5.2 | 0.00 | 0.00 | 0.00 | 63 | 1015.2 |
| 20260510074106 | 59 | 298 | 2.6 | 5.2 | 0.00 | 0.00 | 0.00 | 64 | 1015.2 |
| 20260510073604 | 59 | 279 | 1.7 | 4.3 | 0.00 | 0.00 | 0.00 | 65 | 1015.2 |
| 20260510073106 | 60 | 204 | 1.7 | 4.3 | 0.00 | 0.00 | 0.00 | 65 | 1015.2 |
| 20260510072604 | 59 | 278 | 1.7 | 4.3 | 0.00 | 0.00 | 0.00 | 65 | 1015.2 |
| 20260510072104 | 59 | 241 | 0.9 | 2.6 | 0.00 | 0.00 | 0.00 | 68 | 1015.2 |
| 20260510071605 | 58 | 295 | 0.9 | 4.3 | 0.00 | 0.00 | 0.00 | 68 | 1015.6 |
| 20260510071104 | 57 | 209 | 1.7 | 4.3 | 0.00 | 0.00 | 0.00 | 69 | 1015.2 |
| 20260510070604 | 57 | 293 | 1.7 | 2.6 | 0.00 | 0.00 | 0.00 | 70 | 1015.2 |
| 20260510070105 | 57 | 296 | 0.9 | 4.3 | 0.00 | 0.00 | 0.00 | 71 | 1015.5 |
| 20260510065604 | 57 | 312 | 2.6 | 5.2 | 0.00 | 0.00 | 0.00 | 71 | 1015.2 |
| 20260510065105 | 57 | 293 | 2.6 | 5.2 | 0.00 | 0.00 | 0.00 | 72 | 1015.2 |
| 20260510064604 | 57 | 270 | 1.7 | 5.2 | 0.00 | 0.00 | 0.00 | 74 | 1015.0 |
| 20260510064104 | 56 | 274 | 2.6 | 5.2 | 0.00 | 0.00 | 0.00 | 74 | 1015.2 |
| 20260510063606 | 56 | 178 | 0.9 | 4.3 | 0.00 | 0.00 | 0.00 | 75 | 1015.6 |
| 20260510061604 | 54 | 309 | 0.9 | 4.3 | 0.00 | 0.00 | 0.00 | 79 | 1015.6 |
| 20260510061104 | 54 | 272 | 1.7 | 2.6 | 0.00 | 0.00 | 0.00 | 80 | 1015.6 |
| 20260510060104 | 53 | 308 | 0.9 | 2.6 | 0.00 | 0.00 | 0.00 | 83 | 1015.6 |
| 20260510055604 | 53 | 346 | 0.9 | 4.3 | 0.00 | 0.00 | 0.00 | 83 | 1015.3 |
| 20260510054604 | 52 | 292 | 0.9 | 2.6 | 0.00 | 0.00 | 0.00 | 84 | 1015.2 |
| 20260510054104 | 52 | 255 | 1.7 | 2.6 | 0.00 | 0.00 | 0.00 | 85 | 1015.5 |
| 20260510053604 | 52 | 141 | 1.7 | 2.6 | 0.00 | 0.00 | 0.00 | 85 | 1015.3 |
| 20260510053104 | 51 | 297 | 1.7 | 5.2 | 0.00 | 0.00 | 0.00 | 86 | 1015.6 |
| 20260510052606 | 51 | 291 | 0.9 | 5.2 | 0.00 | 0.00 | 0.00 | 87 | 1015.6 |
| 20260510051604 | 51 | 233 | 0.0 | 2.6 | 0.00 | 0.00 | 0.00 | 87 | 1015.6 |
| 20260510051104 | 50 | 256 | 1.7 | 5.2 | 0.00 | 0.00 | 0.00 | 88 | 1015.5 |
| 20260510050604 | 50 | 273 | 1.7 | 2.6 | 0.00 | 0.00 | 0.00 | 88 | 1015.5 |
| 20260510050105 | 50 | 279 | 1.7 | 2.6 | 0.00 | 0.00 | 0.00 | 89 | 1015.2 |
| 20260510045604 | 50 | 313 | 0.9 | 2.6 | 0.00 | 0.00 | 0.00 | 89 | 1015.2 |
| 20260510044104 | 50 | 307 | 0.9 | 2.6 | 0.00 | 0.00 | 0.00 | 90 | 1015.6 |
| 20260510043604 | 50 | 294 | 0.9 | 2.6 | 0.00 | 0.00 | 0.00 | 90 | 1015.5 |
| 20260510042603 | 49 | 321 | 0.0 | 2.6 | 0.00 | 0.00 | 0.00 | 90 | 1015.3 |
| 20260510042104 | 50 | 343 | 0.9 | 1.7 | 0.00 | 0.00 | 0.00 | 90 | 1015.6 |
| 20260510041104 | 50 | 353 | 0.9 | 2.6 | 0.00 | 0.00 | 0.00 | 90 | 1015.2 |
| 20260510040604 | 50 | 281 | 0.9 | 1.7 | 0.00 | 0.00 | 0.00 | 90 | 1015.5 |
| 20260510040104 | 50 | 313 | 1.7 | 1.7 | 0.00 | 0.00 | 0.00 | 90 | 1015.6 |
| 20260510035605 | 50 | 300 | 0.9 | 1.7 | 0.00 | 0.00 | 0.00 | 90 | 1015.3 |
| 20260510035104 | 50 | 334 | 0.9 | 1.7 | 0.00 | 0.00 | 0.00 | 90 | 1015.2 |
| 20260510034605 | 50 | 323 | 0.0 | 1.7 | 0.00 | 0.00 | 0.00 | 89 | 1015.3 |
| 20260510034105 | 50 | 290 | 1.7 | 1.7 | 0.00 | 0.00 | 0.00 | 89 | 1015.6 |
| 20260510033606 | 50 | 313 | 0.9 | 1.7 | 0.00 | 0.00 | 0.00 | 89 | 1015.3 |
| 20260510033104 | 50 | 152 | 0.0 | 1.7 | 0.00 | 0.00 | 0.00 | 89 | 1015.6 |
| 20260510032604 | 50 | 306 | 0.9 | 1.7 | 0.00 | 0.00 | 0.00 | 89 | 1015.5 |
| 20260510032104 | 50 | 267 | 0.9 | 2.6 | 0.00 | 0.00 | 0.00 | 89 | 1015.6 |
| 20260510031604 | 50 | 274 | 0.9 | 2.6 | 0.00 | 0.00 | 0.00 | 89 | 1015.8 |
| 20260510031104 | 50 | 211 | 0.9 | 1.7 | 0.00 | 0.00 | 0.00 | 89 | 1015.6 |
| 20260510030604 | 50 | 282 | 0.9 | 1.7 | 0.00 | 0.00 | 0.00 | 89 | 1015.6 |
| 20260510030104 | 50 | 310 | 0.9 | 1.7 | 0.00 | 0.00 | 0.00 | 89 | 1015.6 |
| 20260510025104 | 50 | 299 | 0.9 | 1.7 | 0.00 | 0.00 | 0.00 | 89 | 1015.6 |
| 20260510024604 | 50 | 303 | 0.9 | 1.7 | 0.00 | 0.00 | 0.00 | 89 | 1015.9 |
| 20260510024104 | 51 | 284 | 0.9 | 1.7 | 0.00 | 0.00 | 0.00 | 89 | 1015.6 |
| 20260510023605 | 51 | 311 | 0.9 | 2.6 | 0.00 | 0.00 | 0.00 | 89 | 1015.6 |
| 20260510023104 | 51 | 283 | 0.0 | 1.7 | 0.00 | 0.00 | 0.00 | 88 | 1015.6 |
| 20260510022104 | 51 | 281 | 0.9 | 1.7 | 0.00 | 0.00 | 0.00 | 88 | 1015.8 |
| 20260510021604 | 51 | 210 | 0.0 | 1.7 | 0.00 | 0.00 | 0.00 | 88 | 1015.7 |
| 20260510021104 | 51 | 264 | 0.0 | 1.7 | 0.00 | 0.00 | 0.00 | 88 | 1015.8 |
| 20260510020604 | 51 | 286 | 0.9 | 2.6 | 0.00 | 0.00 | 0.00 | 87 | 1015.7 |
| 20260510020105 | 51 | 284 | 0.9 | 4.3 | 0.00 | 0.00 | 0.00 | 87 | 1015.9 |
| 20260510015605 | 51 | 289 | 0.0 | 1.7 | 0.00 | 0.00 | 0.00 | 87 | 1015.7 |
| 20260510015105 | 51 | 238 | 0.0 | 1.7 | 0.00 | 0.00 | 0.00 | 87 | 1015.6 |
| 20260510014604 | 51 | 264 | 0.0 | 1.7 | 0.00 | 0.00 | 0.00 | 87 | 1015.6 |
| 20260510013604 | 51 | 304 | 1.7 | 2.6 | 0.00 | 0.00 | 0.00 | 86 | 1015.9 |
| 20260510012605 | 51 | 320 | 0.9 | 1.7 | 0.00 | 0.00 | 0.00 | 86 | 1015.9 |
| 20260510011605 | 51 | 339 | 0.0 | 1.7 | 0.00 | 0.00 | 0.00 | 85 | 1016.0 |
| 20260510011104 | 51 | 309 | 0.9 | 1.7 | 0.00 | 0.00 | 0.00 | 85 | 1016.2 |
| 20260510010604 | 51 | 278 | 0.9 | 1.7 | 0.00 | 0.00 | 0.00 | 85 | 1015.9 |
| 20260510010106 | 51 | 297 | 0.9 | 1.7 | 0.00 | 0.00 | 0.00 | 84 | 1015.9 |
| 20260510005605 | 51 | 298 | 0.9 | 1.7 | 0.00 | 0.00 | 0.00 | 84 | 1015.9 |
| 20260510004604 | 51 | 60 | 0.0 | 1.7 | 0.00 | 0.00 | 0.00 | 84 | 1015.9 |
| 20260510004104 | 51 | 311 | 0.9 | 1.7 | 0.00 | 0.00 | 0.00 | 83 | 1016.3 |
| 20260510003604 | 51 | 291 | 0.0 | 1.7 | 0.00 | 0.00 | 0.00 | 83 | 1016.0 |
| 20260510003104 | 51 | 325 | 0.9 | 1.7 | 0.00 | 0.00 | 0.00 | 82 | 1016.3 |
| 20260510002604 | 51 | 307 | 0.0 | 1.7 | 0.00 | 0.00 | 0.00 | 82 | 1016.3 |
| 20260510002104 | 51 | 322 | 0.9 | 1.7 | 0.00 | 0.00 | 0.00 | 81 | 1016.3 |
| 20260510001604 | 51 | 304 | 0.0 | 0.9 | 0.00 | 0.00 | 0.00 | 81 | 1016.3 |
| 20260510001105 | 51 | 306 | 0.0 | 0.9 | 0.00 | 0.00 | 0.00 | 81 | 1016.2 |
| 20260510000604 | 51 | 264 | 0.0 | 0.9 | 0.00 | 0.00 | 0.00 | 80 | 1016.3 |
| 20260510000104 | 51 | 311 | 0.9 | 1.7 | 0.00 | 0.00 | 0.00 | 80 | 1016.6 |
| 20260509235106 | 52 | 311 | 0.0 | 1.7 | 0.00 | 0.00 | 0.00 | 79 | 1016.5 |
| 20260509234105 | 52 | 298 | 0.0 | 1.7 | 0.00 | 0.00 | 0.00 | 78 | 1016.5 |
| 20260509233604 | 52 | 317 | 0.9 | 1.7 | 0.00 | 0.00 | 0.00 | 77 | 1016.6 |
| 20260509233104 | 52 | 313 | 0.9 | 1.7 | 0.00 | 0.00 | 0.00 | 77 | 1016.5 |
| 20260509232104 | 52 | 313 | 0.0 | 1.7 | 0.00 | 0.00 | 0.00 | 76 | 1016.4 |
| 20260509231604 | 53 | 302 | 0.9 | 1.7 | 0.00 | 0.00 | 0.00 | 75 | 1016.5 |
| 20260509230605 | 53 | 282 | 0.0 | 1.7 | 0.00 | 0.00 | 0.00 | 74 | 1016.6 |
| 20260509230105 | 53 | 283 | 0.0 | 0.9 | 0.00 | 0.00 | 0.00 | 74 | 1016.5 |
| 20260509225105 | 53 | 250 | 0.0 | 0.9 | 0.00 | 0.00 | 0.00 | 72 | 1016.3 |
| 20260509224604 | 53 | 323 | 0.0 | 0.9 | 0.00 | 0.00 | 0.00 | 72 | 1016.6 |
| 20260509224104 | 53 | 292 | 0.9 | 0.9 | 0.00 | 0.00 | 0.00 | 71 | 1016.6 |
| 20260509223604 | 53 | 282 | 0.9 | 0.9 | 0.00 | 0.00 | 0.00 | 71 | 1016.5 |
| 20260509223104 | 54 | 18 | 0.0 | 0.9 | 0.00 | 0.00 | 0.00 | 71 | 1016.6 |
| 20260509222104 | 54 | 323 | 0.0 | 1.7 | 0.00 | 0.00 | 0.00 | 70 | 1016.4 |
| 20260509221604 | 54 | 319 | 0.9 | 1.7 | 0.00 | 0.00 | 0.00 | 70 | 1016.6 |
| 20260509220604 | 55 | 110 | 0.0 | 0.9 | 0.00 | 0.00 | 0.00 | 70 | 1016.4 |
| 20260509220105 | 55 | 274 | 0.0 | 0.9 | 0.00 | 0.00 | 0.00 | 69 | 1016.6 |
| 20260509215604 | 55 | 281 | 0.0 | 0.9 | 0.00 | 0.00 | 0.00 | 69 | 1016.6 |
| 20260509214604 | 55 | 252 | 0.0 | 1.7 | 0.00 | 0.00 | 0.00 | 68 | 1016.5 |
| 20260509214105 | 55 | 284 | 0.9 | 1.7 | 0.00 | 0.00 | 0.00 | 68 | 1016.4 |
| 20260509213605 | 56 | 133 | 0.0 | 1.7 | 0.00 | 0.00 | 0.00 | 68 | 1016.6 |
| 20260509213104 | 56 | 296 | 0.9 | 1.7 | 0.00 | 0.00 | 0.00 | 68 | 1016.5 |
| 20260509212604 | 56 | 235 | 0.0 | 1.7 | 0.00 | 0.00 | 0.00 | 67 | 1016.4 |
| 20260509212105 | 56 | 320 | 0.9 | 1.7 | 0.00 | 0.00 | 0.00 | 67 | 1016.3 |
| 20260509211104 | 56 | 278 | 0.9 | 1.7 | 0.00 | 0.00 | 0.00 | 67 | 1016.3 |
| 20260509210605 | 56 | 226 | 0.0 | 0.9 | 0.00 | 0.00 | 0.00 | 67 | 1016.3 |
| 20260509210105 | 56 | 228 | 0.9 | 1.7 | 0.00 | 0.00 | 0.00 | 67 | 1016.3 |
| 20260509205605 | 56 | 296 | 0.0 | 0.9 | 0.00 | 0.00 | 0.00 | 67 | 1016.3 |
| 20260509205104 | 57 | 300 | 0.9 | 0.9 | 0.00 | 0.00 | 0.00 | 66 | 1016.3 |
| 20260509204604 | 57 | 292 | 0.9 | 0.9 | 0.00 | 0.00 | 0.00 | 66 | 1016.3 |
| 20260509204106 | 57 | 185 | 0.0 | 1.7 | 0.00 | 0.00 | 0.00 | 65 | 1016.3 |
| 20260509203604 | 57 | 260 | 0.9 | 1.7 | 0.00 | 0.00 | 0.00 | 65 | 1016.3 |
| 20260509202604 | 58 | 269 | 0.0 | 0.9 | 0.00 | 0.00 | 0.00 | 64 | 1016.3 |